Latest Coastal Weather Observations for Coconut Island

IDQ60701

Issued at 1:01 pm EST Monday 30 May 2016 (issued every 10 minutes, with the page automatically refreshed every 10 minutes)

About coastal observations | Map of coastal stations | Coastal observations for QLD | Marine services | Other Formats
Station Details ID: 027054 Name: COCONUT ISLAND Lat: -10.05 Lon: 143.07 Height: 3.5 m
Data from the previous 72 hours. | See also: Recent months at Coconut Island
Date/Time
EST
Temp

°C
Wind Pressure Rain
since 9am
mm
Weather Cloud Vis
km
Sea
Height
m
Swell
Dir
 
Speed
knots
Gust
knots
hPa Trend Height
m
Period
s
Dir
30/01:00pm 30.8 SSE 3 5 1012.0 - 0.0 - - - - - - -
30/12:30pm 31.5 SE 3 8 1012.8 - 0.0 - - - - - - -
30/12:00pm 32.4 SE 4 10 1013.2 - 0.0 - - - - - - -
30/11:30am 32.3 SE 4 9 1013.7 - 0.0 - - - - - - -
30/11:00am 31.9 SE 4 10 1014.0 - 0.0 - - - - - - -
30/10:30am 31.4 ESE 5 11 1013.8 - 0.0 - - - - - - -
30/10:00am 31.0 SE 6 14 1013.8 - 0.0 - - - - - - -
30/09:30am 30.4 ESE 7 12 1013.8 - 0.0 - - - - - - -
30/09:00am 29.6 ESE 8 13 1013.7 - 0.0 - - - - - - -
30/08:30am 29.1 ESE 8 13 1013.6 - 0.0 - - - - - - -
30/08:00am 28.5 SE 7 13 1013.2 - 0.0 - - - - - - -
30/07:30am 27.8 ESE 6 13 1012.6 - 0.0 - - - - - - -
30/07:00am 26.9 SE 5 13 1012.5 - 0.0 - - - - - - -
30/06:30am 26.7 ESE 5 14 1012.1 - 0.0 - - - - - - -
30/06:00am 26.6 SE 5 10 1011.7 - 0.0 - - - - - - -
30/05:30am 26.5 SE 4 8 1011.7 - 0.0 - - - - - - -
30/05:00am 26.6 SE 4 10 1011.4 - 0.0 - - - - - - -
30/04:30am 26.6 SE 4 8 1011.4 - 0.0 - - - - - - -
30/04:00am 26.7 SE 4 12 1011.5 - 0.0 - - - - - - -
30/03:30am 26.9 SE 4 10 1011.7 - 0.0 - - - - - - -
30/03:00am 26.8 SSE 3 8 1011.8 - 0.0 - - - - - - -
30/02:30am 26.7 SE 2 7 1011.9 - 0.0 - - - - - - -
30/02:00am 26.8 SE 3 4 1011.9 - 0.0 - - - - - - -
30/01:30am 26.9 SSE 3 6 1012.2 - 0.0 - - - - - - -
30/01:00am 27.0 SSE 3 7 1012.5 - 0.0 - - - - - - -
30/12:30am 27.0 SE 3 5 1012.7 - 0.0 - - - - - - -
30/12:00am 27.0 SE 3 6 1012.8 - 0.0 - - - - - - -
 
Date/Time
EST
Temp

°C
Wind Pressure Rain
since 9am
mm
Weather Cloud Vis
km
Sea
Height
m
Swell
Dir
 
Speed
knots
Gust
knots
hPa Trend Height
m
Period
s
Dir
29/11:30pm 26.7 SSE 2 4 1013.0 - 0.0 - - - - - - -
29/11:00pm 26.7 SSE 2 8 1013.2 - 0.0 - - - - - - -
29/10:30pm 26.9 SE 3 7 1013.2 - 0.0 - - - - - - -
29/10:00pm 27.1 SSE 3 7 1013.3 - 0.0 - - - - - - -
29/09:30pm 27.4 SSE 3 5 1013.4 - 0.0 - - - - - - -
29/09:00pm 27.4 SSE 3 5 1013.2 - 0.0 - - - - - - -
29/08:30pm 27.5 SSE 3 6 1013.1 - 0.0 - - - - - - -
29/08:00pm 27.5 SSE 3 5 1012.8 - 0.0 - - - - - - -
29/07:30pm 27.6 SSE 3 6 1012.4 - 0.0 - - - - - - -
29/07:00pm 27.9 SSE 3 6 1011.9 - 0.0 - - - - - - -
29/06:30pm 28.2 SSE 4 6 1011.6 - 0.0 - - - - - - -
29/06:00pm 28.7 SSE 3 5 1011.5 - 0.0 - - - - - - -
29/05:30pm 29.8 SSE 3 5 1011.2 - 0.0 - - - - - - -
29/05:00pm 30.5 SSE 3 5 1011.0 - 0.0 - - - - - - -
29/04:30pm 31.5 SSE 2 5 1011.0 - 0.0 - - - - - - -
29/04:00pm 31.8 SSE 2 5 1010.9 - 0.0 - - - - - - -
29/03:30pm 31.9 SSE 2 5 1010.8 - 0.0 - - - - - - -
29/03:00pm 32.8 SE 2 5 1010.8 - 0.0 - - - - - - -
29/02:30pm 32.2 SE 2 7 1011.0 - 0.0 - - - - - - -
29/02:00pm 32.7 SE 2 7 1011.4 - 0.0 - - - - - - -
29/01:30pm 32.4 SE 3 7 1011.6 - 0.0 - - - - - - -
29/01:00pm 32.9 SE 3 8 1011.8 - 0.0 - - - - - - -
29/12:30pm 31.2 SE 3 8 1012.2 - 0.0 - - - - - - -
29/12:00pm 33.1 SE 3 7 1012.7 - 0.0 - - - - - - -
29/11:30am 32.3 SE 4 10 1013.0 - 0.0 - - - - - - -
29/11:00am 32.0 SE 2 6 1013.1 - 0.0 - - - - - - -
29/10:30am 32.0 SE 3 7 1013.3 - 0.0 - - - - - - -
29/10:00am 31.2 SE 3 7 1013.4 - 0.0 - - - - - - -
29/09:30am 30.9 SE 2 7 1013.4 - 0.0 - - - - - - -
29/09:00am 30.2 SE 2 5 1013.3 - 0.0 - - - - - - -
29/08:30am 29.8 SE 2 3 1013.2 - 0.0 - - - - - - -
29/08:00am 29.3 SE 1 4 1012.9 - 0.0 - - - - - - -
29/07:30am 27.7 SE 2 7 1012.5 - 0.0 - - - - - - -
29/07:00am 26.4 SE 2 5 1012.1 - 0.0 - - - - - - -
29/06:30am 26.3 SE 2 7 1011.8 - 0.0 - - - - - - -
29/06:00am 26.4 SSE 1 4 1011.5 - 0.0 - - - - - - -
29/05:30am 26.4 SSE 2 6 1011.3 - 0.0 - - - - - - -
29/05:00am 26.3 SSE 1 2 1011.1 - 0.0 - - - - - - -
29/04:30am 26.3 SE 2 5 1011.1 - 0.0 - - - - - - -
29/04:00am 26.3 SE 3 6 1011.0 - 0.0 - - - - - - -
29/03:30am 26.4 SE 3 7 1011.0 - 0.0 - - - - - - -
29/03:00am 26.3 ESE 1 5 1011.0 - 0.0 - - - - - - -
29/02:30am 26.5 SE 2 5 1011.0 - 0.0 - - - - - - -
29/02:00am 26.6 SE 2 6 1011.1 - 0.0 - - - - - - -
29/01:30am 26.5 SE 2 5 1011.3 - 0.0 - - - - - - -
29/01:00am 26.5 SE 1 4 1011.7 - 0.0 - - - - - - -
29/12:30am 26.6 SE 2 7 1011.9 - 0.0 - - - - - - -
29/12:00am 26.6 SSE 2 5 1012.1 - 0.0 - - - - - - -
 
Date/Time
EST
Temp

°C
Wind Pressure Rain
since 9am
mm
Weather Cloud Vis
km
Sea
Height
m
Swell
Dir
 
Speed
knots
Gust
knots
hPa Trend Height
m
Period
s
Dir
28/11:30pm 26.6 SSE 1 3 1012.4 - 0.0 - - - - - - -
28/11:00pm 26.6 SSE 1 3 1012.5 - 0.0 - - - - - - -
28/10:30pm 26.6 SSE 1 3 1012.5 - 0.0 - - - - - - -
28/10:00pm 26.6 SSE 3 7 1012.3 - 0.0 - - - - - - -
28/09:30pm 26.7 SE 2 6 1012.3 - 0.0 - - - - - - -
28/09:00pm 26.7 SE 3 5 1012.1 - 0.0 - - - - - - -
28/08:30pm 27.0 ESE 3 6 1012.0 - 0.0 - - - - - - -
28/08:00pm 27.0 SE 3 6 1011.8 - 0.0 - - - - - - -
28/07:30pm 27.2 SE 2 4 1011.4 - 0.0 - - - - - - -
28/07:00pm 27.4 SE 2 6 1011.2 - 0.0 - - - - - - -
28/06:30pm 27.8 SE 1 5 1011.2 - 0.0 - - - - - - -
28/06:00pm 28.3 SSE 2 6 1011.0 - 0.0 - - - - - - -
28/05:30pm 28.9 SSE 2 7 1010.8 - 0.0 - - - - - - -
28/05:00pm 30.0 SE 1 3 1010.7 - 0.0 - - - - - - -
28/04:30pm 31.3 SE 1 3 1010.8 - 0.0 - - - - - - -
28/04:00pm 32.1 SE 2 5 1010.7 - 0.0 - - - - - - -
28/03:30pm 32.1 SE 1 3 1010.9 - 0.0 - - - - - - -
28/03:00pm 32.4 SE 2 6 1011.0 - 0.0 - - - - - - -
28/02:30pm 31.6 SSE 1 4 1011.2 - 0.0 - - - - - - -
28/02:00pm 32.8 SE 1 5 1011.4 - 0.0 - - - - - - -
28/01:30pm 32.4 SSE 2 4 1012.2 - 0.0 - - - - - - -
28/01:00pm 33.1 SE 1 3 1012.6 - 0.0 - - - - - - -
28/12:30pm 31.5 SSE 1 5 1013.1 - 0.0 - - - - - - -
28/12:00pm 31.5 SSE 2 5 1013.5 - 0.0 - - - - - - -
28/11:30am 30.7 SE 3 6 1013.8 - 0.0 - - - - - - -
28/11:00am 29.6 ESE 2 5 1014.0 - 0.0 - - - - - - -
28/10:30am 29.2 SE 3 6 1014.1 - 0.0 - - - - - - -
28/10:00am 28.7 ESE 4 8 1014.2 - 0.0 - - - - - - -
28/09:30am 28.6 SE 3 7 1014.2 - 0.0 - - - - - - -
28/09:00am 28.7 ESE 4 7 1013.8 - 0.0 - - - - - - -
28/08:30am 29.5 ESE 4 7 1013.4 - 0.0 - - - - - - -
28/08:00am 28.2 ESE 4 7 1013.3 - 0.0 - - - - - - -
28/07:30am 27.0 SE 2 6 1013.1 - 0.0 - - - - - - -
28/07:00am 26.6 SE 2 6 1012.9 - 0.0 - - - - - - -
28/06:30am 26.4 SE 3 6 1012.7 - 0.0 - - - - - - -
28/06:00am 26.5 SSE 1 3 1012.5 - 0.0 - - - - - - -
28/05:30am 26.6 SE 1 5 1012.5 - 0.0 - - - - - - -
28/05:00am 26.6 SSE 1 3 1012.2 - 0.0 - - - - - - -
28/04:30am 26.7 SSE 1 4 1012.1 - 0.0 - - - - - - -
28/04:00am 26.8 SSE 1 2 1012.1 - 0.0 - - - - - - -
28/03:30am 26.8 SSE 1 2 1011.9 - 0.0 - - - - - - -
28/03:00am 26.8 SE 2 5 1011.9 - 0.0 - - - - - - -
28/02:30am 26.8 SE 3 6 1012.1 - 0.0 - - - - - - -
28/02:00am 27.0 SE 2 6 1012.3 - 0.0 - - - - - - -
28/01:30am 27.0 SE 1 4 1012.4 - 0.0 - - - - - - -
28/01:00am 27.3 SSE 1 4 1012.5 - 0.0 - - - - - - -
28/12:30am 27.1 SSE 2 5 1012.4 - 0.0 - - - - - - -
28/12:00am 27.1 SSE 1 3 1012.3 - 0.0 - - - - - - -
 
Date/Time
EST
Temp

°C
Wind Pressure Rain
since 9am
mm
Weather Cloud Vis
km
Sea
Height
m
Swell
Dir
 
Speed
knots
Gust
knots
hPa Trend Height
m
Period
s
Dir
27/11:30pm 27.1 SE 2 5 1012.5 - 0.0 - - - - - - -
27/11:00pm 27.1 ESE 3 7 1012.8 - 0.0 - - - - - - -
27/10:30pm 27.2 SE 1 4 1012.8 - 0.0 - - - - - - -
27/10:00pm 27.0 SE 3 7 1012.6 - 0.0 - - - - - - -
27/09:30pm 27.2 SE 2 5 1012.7 - 0.0 - - - - - - -
27/09:00pm 27.1 SSE 1 6 1012.4 - 0.0 - - - - - - -
27/08:30pm 27.3 SSE 1 3 1012.2 - 0.0 - - - - - - -
27/08:00pm 27.4 SSE 1 2 1012.1 - 0.0 - - - - - - -
27/07:30pm 27.6 SSE 1 2 1011.8 - 0.0 - - - - - - -
27/07:00pm 27.8 SSE 1 2 1011.5 - 0.0 - - - - - - -
27/06:30pm 28.2 SSE 1 2 1011.2 - 0.0 - - - - - - -
27/06:00pm 28.8 SSE 1 2 1010.9 - 0.0 - - - - - - -
27/05:30pm 29.7 SE 1 3 1010.6 - 0.0 - - - - - - -
27/05:00pm 31.0 SE 1 3 1010.4 - 0.0 - - - - - - -
27/04:30pm 31.0 SSE 1 3 1010.3 - 0.0 - - - - - - -
27/04:00pm 31.3 SSE 1 3 1010.1 - 0.0 - - - - - - -
27/03:30pm 31.9 SE 1 3 1010.1 - 0.0 - - - - - - -
27/03:00pm 32.6 SE 1 3 1010.5 - 0.0 - - - - - - -
27/02:30pm 33.4 SE 2 3 1010.8 - 0.0 - - - - - - -
27/02:00pm 33.4 SE 2 4 1011.2 - 0.0 - - - - - - -
27/01:30pm 33.0 SE 2 5 1011.6 - 0.0 - - - - - - -

Other Formats:

Comma delimited format used in spreadsheet applications
http://www.bom.gov.au/fwo/IDQ60701/IDQ60701.94182.axf

JavaScript Object Notation format (JSON) in row-major order
http://www.bom.gov.au/fwo/IDQ60701/IDQ60701.94182.json